PreDB.eu

music predb - trance, techno, house, hardstyle, hardcore
updated: 2022-06-26 06:44:33
JAN 4 GB 185 RFEB 3 GB 208 RMAR 5 GB 221 RAPR 4 GB 196 RMAY 4 GB 195 R
2022-04-10 14:32:42Hardstyle58Ryan_T._And_Denox_Ft._Kaytee_-_Heaven-(DWX1163)-SINGLE-WEB-2022-SRG
2022-04-10 14:32:33Hardstyle58Ncrypta_-_Scars_(Deezl_Remix)-(ID011)-SINGLE-WEB-2022-SRG
2022-04-10 14:32:27Hardstyle510Luxho_-_Termination-(UPR151)-SINGLE-WEB-2022-SRG
2022-04-10 14:32:17Hardstyle56High_Level_Ft._Mark_And_Alex_-_Wellerman-(HMR110)-SINGLE-WEB-2022-SRG
2022-04-10 14:32:12Hardstyle510Hard_Driver_-_Down_To_The_Wire-(DWX1164)-SINGLE-WEB-2022-SRG
2022-04-10 14:32:05Hardstyle57AbstructA_-_Bloodfight-(SGR038E)-SINGLE-WEB-2022-SRG
2022-04-10 13:57:22Hardstyle617Nakuza_-_Eternal_Life-(NR106)-WEB-2022-SRG
2022-04-10 08:09:15Hardstyle725Darksiderz--Ancestors_EP-(BSC038A)-WEB-2022-OMA
2022-04-10 05:13:11Hardstyle57Luxho_-_Monster_(Edit)-(BBD075)-WEB-2022
2022-04-10 05:12:39Hardstyle59Break_Of_Dawn_feat_Meryll_-_High_(Extended_Mix)-(ETY001)-WEB-2021
2022-04-09 05:14:57Hardstyle58TheBoyWithSpec_-_Broken_Down_(Extented)-(HSF52)-WEB-2022
2022-04-09 05:14:17Hardstyle512B-Savage_-_You_Know_This_(Extended_Mix)-(INFEXORI008)-WEB-2022
2022-04-09 05:13:58Hardstyle59Raiden_-_Mad_4_You_(Extended_Mix)-(DMW259)-WEB-2022
2022-04-08 18:58:07Hardstyle59Pulseraiser_-_The_Future_(Extended_Mix)-(DMW260)-WEB-2022
2022-04-08 18:57:49Hardstyle617Mrotek_and_Rob_Gee_-_Party_Time-(BSC037)-WEB-2022
2022-04-08 18:57:32Hardstyle57Liquidflux_and_Kurxco_-_I_Feel_Free_(Extended_Mix)-(GBR140)-WEB-2022
2022-04-08 18:57:15Hardstyle59Kruelty_-_Sarin-33-(TCRECPRO042)-WEB-2022
2022-04-08 15:04:17Hardstyle58Phyric_-_Atlantis-(SSL254)-SINGLE-WEB-2022-FMC
2022-04-07 14:46:40Hardstyle58Eight-D_-_One_For_The_Money-(FB20220010)-SINGLE-WEB-2022-SRG
2022-04-07 11:22:25Hardstyle511Retrospect_-_Reach_The_Sky_(Original_Mix)-(SSL253)-WEB-2022
2022-04-07 09:37:13Hardstyle23286VA_-_Beatport_Exclusives_Only_Week_13-WEB-2022
2022-04-07 09:03:23Hardstyle58Kairos_Ft._Pedico_-_Ly_O_Lay_Ale_Loya-(LOV116)-SINGLE-WEB-2022-SRG
2022-04-06 23:01:32Hardstyle58Hunta_-_All_Power-(GBE142)-SINGLE-WEB-2022-SRG
2022-04-06 23:01:32Hardstyle510Physika_-_The_Party_Song-(MYM044)-SINGLE-WEB-2022-SRG
2022-04-06 23:01:32Hardstyle58Sub_Zero_Project_-_Renaissance_Of_Rave-(DWX1162)-SINGLE-WEB-2022-SRG
2022-04-06 23:01:32Hardstyle58The_Purge_-_METAPURGE-(SSR041)-SINGLE-WEB-2022-SRG
2022-04-06 23:01:32Hardstyle59VDK_-_Forever_(Extended_Mix)-(DWX1161)-SINGLE-WEB-2022-SRG
2022-04-06 07:11:47Hardstyle57Respectrum_-_I_Wont_Die-WEB-2022
2022-04-06 07:11:12Hardstyle57Toy_Soldierz_-_I_Think_Of_You_(Edit)-(HDUK013D)-WEB-2022
2022-04-06 04:33:27Hardstyle615B-Freqz_Ft._Jonjo_-_Low_Key_(WTF_Edit)-WEB-2022-SRG
2022-04-06 04:33:27Hardstyle614Broken_Element_And_GLDY_LX_-_Frontline-(SPQ039PRO)-WEB-2022-SRG
2022-04-06 03:03:43Hardstyle510Retrospect_-_Reach_The_Sky-(SSL253)-SINGLE-WEB-2022-SRG
2022-04-06 03:03:43Hardstyle511The_Prophet_Ft._Chuck_Roberts_-_In_Hardstyle_We_Trust-(SCANTRAXX397)-SINGLE-WEB-2022-SRG
2022-04-05 11:36:37Hardstyle58NMLSS_-_Join_Us_Or_Back_Out-(GBR144)-SINGLE-WEB-2022-SRG
2022-04-05 11:36:33Hardstyle510Horyzon_Ft._Amitav_-_Speed_Of_Light_(Extended_Mix)-(DWX1160)-SINGLE-WEB-2022-SRG
2022-04-05 11:36:30Hardstyle56Kinetic_-_CTRL-(UPR150)-SINGLE-WEB-2022-SRG
2022-04-05 11:36:19Hardstyle57Hard_Projectz_-_Exploration-(AWK011E)-SINGLE-WEB-2022-SRG
2022-04-05 04:33:32Hardstyle619Delius_-_Adrenaline-(ROUGHR117PRO)-WEB-2022-SRG
2022-04-04 07:13:03Hardstyle57Medtraxx_-_Pay_Day_(Edit)-(HAC028)-WEB-2022
2022-04-04 07:12:44Hardstyle58Tiberias_and_Lemarc_-_Never_Quit-(MD125)-WEB-2022
2022-04-04 07:12:26Hardstyle17114VA_-_Hardstyle_Remixes_Of_Popular_Hits-(57931)-WEB-2022
2022-04-04 05:18:15Hardstyle24287VA_-_Beatport_Exclusives_Only_Week_12-WEB-2022
2022-04-04 02:02:18Hardstyle58Fraw_-_Rebirth-(GBD351)-SINGLE-WEB-2022-SRG
2022-04-04 02:02:18Hardstyle57Nacion_And_MC_Activate_-_Always_Win-(CNN005)-SINGLE-WEB-2022-SRG
2022-04-04 02:02:18Hardstyle58Killshot_And_Bloodlust_-_Bass_Zo_Dik-(EOL173)-SINGLE-WEB-2022-SRG
2022-04-03 13:13:17Hardstyle741Luckes_-_Wake_Up_EP-(KUBE051)-WEB-2022-SRG
2022-04-03 13:09:41Hardstyle619Art_Frequency_-_Dont_Stop_Dreaming-(DT191)-WEB-2022-SRG
2022-04-03 07:13:37Hardstyle59RWND_and_Mark_Eva_-_Invincible_(Extended_Mix)-(DWX1146)-WEB-2022
2022-04-03 07:13:21Hardstyle58K1_and_Routter_-_Are_You_Ready-(K1R162)-WEB-2022
2022-04-03 07:12:27Hardstyle58Novakaine_-_Waves_(Edit)-(TCLABSPRO053)-WEB-2022
2022-04-03 07:12:11Hardstyle57Raiden_-_Mad_4_You_(Edit)-(DMW259)-WEB-2022
2022-04-03 07:11:12Hardstyle57Sinan_Onu_-_ZYZZ-(3616844802143)-WEB-2022
2022-04-03 05:28:20Hardstyle58Pulseraiser_-_The_Future-(DMW260)-SINGLE-WEB-2022-FMC
2022-04-02 19:35:43Hardstyle44314VA-Hardstyle_Empire_2022-(MOR31146)-WEB-2022-KNOWN
2022-04-02 16:32:49HardstyleSoundstorm_And_Crusadope_-_Lost_In_The_Light-(VXII015)-SINGLE-WEB-FLAC-2022-HSF
2022-04-02 16:21:12HardstyleSoren_-_Darkness-(WLCM131)-SINGLE-WEB-FLAC-2022-HSF
2022-04-02 16:15:47HardstyleFrequencerz_And_Invector_-_Come_To_Life-(ROUGH215PRO)-WEB-FLAC-2022-HSF
2022-04-02 16:07:35HardstyleRejecta_-_Set_Myself_Free-(Q294PRO)-WEB-FLAC-2022-HSF
2022-04-02 07:13:49Hardstyle536Halestone_-_Wait_(Extended_Mix)-(INFEXEUP008)-WEB-FLAC-2022
2022-04-02 07:13:31Hardstyle57Level_One_and_Disarray_-_Vengeance_(Original_Mix)-(SCARB069)-WEB-2022
2022-04-02 07:13:14Hardstyle614Earsquaker_-_Focus-(EQ003)-WEB-2022
2022-04-02 07:12:37Hardstyle24169VA_-_Beast_Mode_On_-_Hardstyle_Work_Out_III-(QDIG033)-WEB-2022
2022-04-02 07:11:52Hardstyle56Liquidflux_and_Kurxco_-_I_Feel_Free_(Edit)-(GBR140)-WEB-2022
2022-04-02 07:11:35Hardstyle56Ricardo_Moreno_-_Jump_Up_(Edit)-(RNRM22002B)-WEB-2022
2022-04-01 11:47:29Hardstyle16170Luke_Spellbound_-_Adventures_Of_A_Mad_Man-(AHGOLD001)-WEB-2022-SRG
2022-04-01 09:28:41Hardstyle510Mark_Eva_-_Profound_(TWSTD_Remix)-(TR080A)-SINGLE-WEB-2022-FMC
2022-04-01 07:14:09Hardstyle56Crossfight_-_Crossin_The_Line-(SCARB068)-WEB-2022
2022-04-01 07:13:52Hardstyle614Dropixx_and_Limitless_-_Lift_Me_Up-(RLS00190484)-WEB-2022
2022-04-01 07:13:31Hardstyle624Digitaltek_and_Outer_Mind_-_Midnight_Stars-(BRR576)-WEB-2022
2022-04-01 07:13:13Hardstyle32217VA_-_Hardstyle_Hurricane_Vol._3_-_Dark_Side_Dimensions-(MOR31132)-WEB-2022
2022-04-01 07:11:56Hardstyle55Empyre_One_-_Just_Dance_(Maxtreme_and_Dropixx_Remix)_(Edit)-(GAZ318)-WEB-2022
2022-04-01 07:11:39Hardstyle58Ricardo_Moreno_-_Wild_and_Young_(Extended)-(RNRM21030B)-WEB-2021
2022-04-01 07:11:15Hardstyle535Kindred_Spirit_-_No_More_(Extended_Mix)-(INFEXEUP006)-WEB-FLAC-2021
2022-04-01 02:37:51Hardstyle58Steve_Chris_-_Different-(PLUUS006)-SINGLE-WEB-2022-ZzZz
2022-03-31 13:17:34Hardstyle616Mersy_Ft._Nymeos_-_System_Error-(FB20220009)-WEB-2022-SRG
2022-03-31 10:11:21Hardstyle59Stylar_-_Black_Sky-(GBE141)-SINGLE-WEB-2022-SRG
2022-03-31 10:11:15Hardstyle510Envine_-_Synthesized-(SCANTRAXX396)-SINGLE-WEB-2022-SRG
2022-03-31 10:11:08Hardstyle57E-Force_-_Partyrocker-(EOL171)-SINGLE-WEB-2022-SRG
2022-03-31 10:11:03Hardstyle58Daniele_Mondello_And_Air_Teo_-_SURVIVORS-SINGLE-WEB-2022-SRG
2022-03-31 07:13:25Hardstyle535Final_Day_-_The_Witches_(Extended_Mix)-(ETY015)-WEB-FLAC-2022
2022-03-31 07:13:00Hardstyle529Sound_Rush_and_LXCPR_-_Mantra-(AOC067)-WEB-FLAC-2022
2022-03-31 07:12:42Hardstyle57Kenai_-_Disapprove_(Extended_Mix)-(i3028)-WEB-2022
2022-03-31 07:12:25Hardstyle59Night_Owl_-_You_And_Me_(Extended)-WEB-2022
2022-03-31 07:12:07Hardstyle56D-Royal_-_Victorious_(Edit)-(K1R164)-WEB-2022
2022-03-31 07:11:48Hardstyle510Dan-Rider_-_Your_Story_(Edit)-(TCLABSPRO052)-WEB-2022
2022-03-30 13:21:53Hardstyle57Zyon_-_Slow-(MYM043)-SINGLE-WEB-2022-SRG
2022-03-30 13:12:36Hardstyle615Ransom_-_Give_U_Love-(SPQ038PRO)-WEB-2022-SRG
2022-03-30 13:12:30Hardstyle617Hypnose_-_Dont_Wanna_(Yesterday)-(IAHA011)-WEB-2022-SRG
2022-03-30 13:12:24Hardstyle619Gunz_For_Hire_Ft._Ava_Silver_-_Firestone-WEB-2022-SRG
2022-03-30 11:52:28Hardstyle59Kronos_-_1991-(BLACK078)-SINGLE-WEB-2022-SRG
2022-03-30 11:52:19Hardstyle58Ixium_-_Frayed_And_Fallen-(DWX1159)-SINGLE-WEB-2022-SRG
2022-03-30 10:45:55Hardstyle24159VA-Ich_Liebe_Hardstyle_2022_1-(QDIG034)-WEB-2022-JUSTiFY_iNT
2022-03-30 07:14:28Hardstyle535JGSW_-_This_Is_Our_Time-(ETY016)-WEB-FLAC-2022
2022-03-30 07:13:33Hardstyle511Hannya_and_Kicksmith_-_Follow_Me-(PDE0081)-WEB-2022
2022-03-29 13:08:33Hardstyle614Luner_-_By_My_Side-(NEXT124PRO)-WEB-2022-SRG
2022-03-29 10:21:45Hardstyle59Vexxed_-_House_Party-(UPR149)-SINGLE-WEB-2022-SRG
2022-03-29 10:21:37Hardstyle58Exproz_-_Drop_It-(GBR143)-SINGLE-WEB-2022-SRG
2022-03-29 07:14:40Hardstyle511Damien_RK_and_Wild_Fox_-_Release_The_Force_(Hardkaze_2022_Anthem)-(HSF53)-WEB-2022
2022-03-29 07:14:21Hardstyle59Shinzo_-_Never_Let_Me_Fall_(Extended_Mix)-(GAZ306)-WEB-2022
2022-03-29 07:13:44Hardstyle44326VA_-_Hardstyle_Force_2022_-_Join_The_Rebellion-(MOR31104)-WEB-2022
2022-03-29 07:11:49Hardstyle623Comare_-_Bass_In_My_Funny_Face-(MQDRHRD01)-WEB-2022
2022-03-29 07:11:11Hardstyle57TheBoyWithSpec_-_Broken_Down_(Edit)-(HSF52)-WEB-2022
2022-03-28 13:21:42Hardstyle58Riot_Shift_And_Anderex_-_HYPERDIMENSION_(Extended_Mix)-(GBD350)-SINGLE-WEB-2022-SRG
2022-03-28 07:15:46Hardstyle48Triads_Div_Eadie_feat_Chris_Ponate_-_A_Million_Colours_(Extended_Mix)-(SLN225)-WEB-2022
2022-03-28 07:15:23Hardstyle58Empyre_One_-_Just_Dance_(Maxtreme_and_Dropixx_Remix)-(GAZ318)-WEB-2022
2022-03-28 07:15:05Hardstyle57Neroz_-_Sacrifice_(Ressurectz_Extended_Remix)-(H4H089)-WEB-2022
2022-03-28 07:11:32Hardstyle58Cally_and_J-Trax_-_Too_Much_(Edit)-(HDUK012D)-WEB-2022
2022-03-28 07:11:13Hardstyle620Mitcry_and_Isaac_Blum_-_Show_Me_(Breseb_Remix)-(OTM213)-WEB-2022
2022-03-28 07:04:22Hardstyle510Brown_Stylez_and_DJ_Sunri_and_Deeplosax-We_Rave_The_World-(PUR062)-SINGLE-WEB-2022-KNOWN
2022-03-27 17:17:01Hardstyle615Kloon--Venom-(HKR0006)-WEB-2022-OMA
2022-03-27 07:14:50Hardstyle511DJ_Thera_-_Tranceparency-(TCCPRO024)-WEB-2022
2022-03-27 07:14:28Hardstyle49SL_Complex_-_Letting_Go-(PRSPX102)-WEB-2022
2022-03-27 07:14:04Hardstyle59D-Royal_-_Falling_(Edit)-(RTTER08)-WEB-2022
2022-03-26 07:15:06Hardstyle59Avian_-_King_In_The_Streets-(i3027)-WEB-2022
2022-03-26 07:12:04Hardstyle44330VA_-_Heroes_Of_Hardstyle_Vol_3-(MOR31102)-WEB-2022
2022-03-25 18:14:50Hardstyle837Blutonium_Boy--Acid_Over_London-(BLU314)-WEB-2022-OMA
2022-03-25 18:13:53Hardstyle24168Blutonium_Boy--Best_Of_Vol_2-(ALP028)-WEB-2022-OMA
2022-03-25 15:44:53Hardstyle1591The_Elite_-_Legends_Of_The_Elite-(DWXCD040)-WEB-2022-SRG
2022-03-25 15:33:37Hardstyle56Wavebreaker_-_Call_You_Out-(UPR148)-SINGLE-WEB-2022-SRG
2022-03-25 15:33:31Hardstyle55Ressurectz_-_The_Saints-(APEX043)-SINGLE-WEB-2022-SRG
2022-03-25 15:33:25Hardstyle58Resensed_Ft._Hicksu_-_Into_Your_Heart-(DWX1158)-SINGLE-WEB-2022-SRG
2022-03-25 15:33:20Hardstyle58RAYZEN_-_Alive-(GBD349)-SINGLE-WEB-2022-SRG
2022-03-25 15:33:14Hardstyle58Mark_Eva_-_Inside_The_Moment-(TR079)-SINGLE-WEB-2022-SRG
2022-03-25 15:33:01Hardstyle510Bruno_Power_And_Thieves_Of_Dreams_Ft._Alexandre_-_Rise-(WRD014)-SINGLE-WEB-2022-SRG
2022-03-25 07:14:41Hardstyle511Dan-Rider_-_Your_Story-(TCLABSPRO052)-WEB-2022
2022-03-25 07:13:39Hardstyle1035VA_-_The_Exodus_(Edits)-(CRD047EXT)-WEB-2022
2022-03-25 07:13:17Hardstyle59Kokwak_and_Neeva_-_Dancing_Spirits_In_The_Sky_(Edit)-(HSF54)-WEB-2022
2022-03-25 07:12:10Hardstyle57K1_and_Routter_-_Are_You_Ready_(Edit)-(K1R162)-WEB-2022
2022-03-24 21:07:30Hardstyle728Griever_-_Follow_The_Path_EP-(SSR040)-WEB-2022-SRG
2022-03-24 21:07:24Hardstyle58Crude_Intentions_And_Ruthless_-_I_Like_It_(Extended_Mix)-(DWX1155)-SINGLE-WEB-2022-SRG
2022-03-24 21:07:18Hardstyle59Adrenalize_Ft._ADN_Lewis_-_Dont_Give_Up-(SCANTRAXX395)-SINGLE-WEB-2022-SRG
2022-03-24 16:35:17Hardstyle58Frenetik_And_Shamanz_-_Destruction-(ACTDRK068)-SINGLE-WEB-2022-SRG
2022-03-24 16:35:11Hardstyle510Dawa-X_And_Eight-D_-_Get_Yo_Ass_Up-(FB20220008)-SINGLE-WEB-2022-SRG
2022-03-24 16:35:04Hardstyle615Cryex_-_Why_Always_Me-WEB-2022-SRG
2022-03-24 07:14:36Hardstyle58Woodpecker_-_Right_Now_(Original_Mix)-(POW093)-WEB-2022
2022-03-24 07:12:41Hardstyle58Hard_Breaker_-_You_Think_Its_Over-(FB20220006)-WEB-2022
2022-03-24 07:11:46Hardstyle58Sound_Driver_-_Madness_(Edit)-(K1R161)-WEB-2022
2022-03-24 07:11:11Hardstyle58Konatix_-_Lose_It_All-(4061707886720)-WEB-2022
2022-03-24 07:06:33Hardstyle58Sound_Rush_Feat_LXCPR_-_Mantra-(AOC067)-SINGLE-WEB-2022-FMC
2022-03-24 07:06:01Hardstyle510Rebelion_And_Vertile_-_Simulation-(ACR003)-SINGLE-WEB-2022-FMC
2022-03-24 05:30:44Hardstyle24293VA_-_Beatport_Exclusives_Only_Week_10-WEB-2022
2022-03-23 22:29:44Hardstyle57Yuta_Imai_And_Toy_Soldierz_-_Smooth_Operator_(Extended_Mix)-(DWX1152)-SINGLE-WEB-2022-SRG
2022-03-23 22:29:37Hardstyle512Vyral_And_MC_Activate_-_From_The_Depths_(The_Gated_Special_Anthem)-(SPOON233)-SINGLE-WEB-2022-SRG
2022-03-23 22:29:31Hardstyle58Nexone_-_Stand_My_Ground_(Extended_Mix)-(DWX1156)-SINGLE-WEB-2022-SRG
2022-03-23 22:29:25Hardstyle59Lady_Faith_-_Overdose-(SCANTRAXX394)-SINGLE-WEB-2022-SRG
2022-03-23 22:29:19Hardstyle59Audiofreq_Ft._Philip_Jax_-_Sign_From_Above-(DWX1157)-SINGLE-WEB-2022-SRG
2022-03-23 15:34:29Hardstyle615Frequencerz_-_Lose_My_Shit-WEB-2022-SRG
2022-03-23 15:34:25Hardstyle616Brennan_Heart_And_Jay_Mason_-_Story_Of_Tomorrow-(IAH071)-WEB-2022-SRG
2022-03-23 08:23:45Hardstyle57THEBOYWITHSPEC_-_Call_It_Love_(Extended)-(SFS023)-WEB-2022
2022-03-23 08:23:27Hardstyle617Xense_-_Im_Falling_(feat._TNYA)-(IAHA010D)-WEB-2022
2022-03-23 08:23:09Hardstyle57DVRGNT_and_Hunta_-_Wake_Up_(Overdrive_Remix)_(Edit)-(SGR037)-WEB-2022
2022-03-23 08:22:37Hardstyle615Obverzed_-_Life-(4061707883002)-WEB-2022
2022-03-23 08:21:56Hardstyle59Bmberjck_-_Roll_The_Dice_(Extended_Mix)-(OBVN046)-WEB-2021
2022-03-22 22:18:23Hardstyle835VA_-_The_Rookie_EP_Vol.9-(EOL171)-WEB-2022-SRG
2022-03-22 16:37:00Hardstyle58Mutilator_-_Violated-(GBD348)-SINGLE-WEB-2022-SRG
2022-03-22 16:36:55Hardstyle58Matzic_And_Oxya_-_Dystopia-(GBR142)-SINGLE-WEB-2022-SRG
2022-03-22 16:36:50Hardstyle510JGSW_-_This_Is_Our_Time-(ETY016)-SINGLE-WEB-2022-SRG
2022-03-22 16:36:44Hardstyle59Eternum_-_Succeed-(UPR147)-SINGLE-WEB-2022-SRG
2022-03-22 16:36:39Hardstyle510Chronic_Distortion_And_Untold_Stories_-_Frequency_Of_The_Planet-(AREC085E)-SINGLE-WEB-2022-SRG
2022-03-22 07:14:00Hardstyle512Dyxxiz_-_Listen_To_My_World-(CSP007)-WEB-2022
2022-03-22 07:13:43Hardstyle510Loudar_-_Heroes-(PRSPX100)-WEB-2022
2022-03-22 07:13:25Hardstyle618Normal1Zer_-_Whole_Lotta_Love-(PDH0044)-WEB-2022
2022-03-22 07:13:06Hardstyle615Bangbros_-_Yeah_Yeah_Yeah_(D-Tune_vs_H.U.P.D._Remix)-(MMRD1459)-WEB-2022
2022-03-22 07:11:57Hardstyle24163VA_-_I_Love_Hardstyle_2022_1-(QDIG032)-WEB-2022
2022-03-22 07:11:12Hardstyle615Endrage_-_I_Wanna_Go_Back-(DKZ042)-WEB-2022
2022-03-21 07:13:43Hardstyle58Dr._Chronic_-_Heroes_(Edit)-(HAC027)-WEB-2022
2022-03-21 07:13:03Hardstyle58Hypnotic_Phase_-_Turn_It_Up_Louder_(Edit)-(UPR143)-WEB-2022
2022-03-21 07:12:45Hardstyle58RWND_and_Mark_Eva_-_Invincible_(Edit)-(DWX1146)-WEB-2022
2022-03-21 07:12:28Hardstyle56Neroz_-_Sacrifice_(Ressurectz_Remix)-(H4H089)-WEB-2022
2022-03-21 07:11:17Hardstyle432JNXD_-_Supergirl-WEB-FLAC-2021
2022-03-20 12:07:49Hardstyle615Stephen_Game_-_Secrets-(NEXT123PRO)-WEB-2022-SRG
2022-03-20 12:07:42Hardstyle616Nick_Novity_-_Inside_My_Head-(DT190)-WEB-2022-SRG
2022-03-20 10:15:31Hardstyle59Kickmachine_-_Underworld-(CSP006)-WEB-2022
2022-03-19 16:39:54Hardstyle59Varn_-_Come_See_Us_(Extended_Mix)-(DMW254)-WEB-2022
2022-03-19 16:39:28Hardstyle58B-Elementz_-_Back_2_U_(Edit)-(DMW258)-WEB-2022
2022-03-19 16:37:52Hardstyle837Blutonium_Boy_-_Acid_Over_London-(BLU314)-WEB-2022
2022-03-19 15:44:48Hardstyle510Alcatraz_Dj_-_Time_To_Die-(CSP005)-WEB-2021
2022-03-18 12:26:01Hardstyle57Subraver_-_Love_Of_My_Life-(DWX1154)-SINGLE-WEB-2022-SRG
2022-03-18 12:25:54Hardstyle621Modul8_-_I_Cant_Help_Myself-(ELL037)-WEB-2022-SRG
2022-03-18 11:53:14Hardstyle55Vindicate_-_Cant_Forget-(TR078)-SINGLE-WEB-2022-SRG
2022-03-18 11:53:08Hardstyle58Unresolved_-_The_Big_Bad_Wolf_(Uncaged_Remix)-(RSR068)-SINGLE-WEB-2022-SRG
2022-03-18 11:53:02Hardstyle59TNT_-_OMG_(Extended_Mix)-(DWX1151)-SINGLE-WEB-2022-SRG
2022-03-18 11:52:58Hardstyle56DSTORTD_-_9MM-(UPR146)-SINGLE-WEB-2022-SRG
2022-03-18 05:27:05Hardstyle857Remco_Beekwilder_-_Menace_Of_Mysteria_EP-(EMERALD011)-WEB-2021
2022-03-18 05:14:10Hardstyle59Mark_Ronnie_-_Four_Hours_(Extended)-(3616845207022)-WEB-2022
2022-03-18 05:13:00Hardstyle618Guenta_K._and_Andy_Ztoned_and_Dualxess_-_Zeitmaschine-(DT0012022)-WEB-2022
2022-03-17 16:12:33Hardstyle58The_Darkraver_And_DJ_Vince_-_Thunderground_(KELTEK_Remix)-(SCANTRAXX393)-SINGLE-WEB-2022-SRG
2022-03-17 16:12:27Hardstyle58Genesiz_-_I_Am_Different-(GBE140)-SINGLE-WEB-2022-SRG
2022-03-17 16:01:52Hardstyle615Degos_And_Re-Done_-_Step_Your_Game_Up-WEB-2022-SRG
2022-03-17 16:01:34Hardstyle58Da_Vibe_-_Stay_On_My_Side-(FB20220007)-SINGLE-WEB-2022-SRG
2022-03-17 08:24:28Hardstyle511The_Elite_-_Edge_Of_The_Unknown-(DWX1153)-SINGLE-WEB-2022-FMC
2022-03-17 05:21:08Hardstyle25311VA_-_Beatport_Exclusives_Only_Week_9-WEB-2022
2022-03-17 05:14:35Hardstyle57Bmberjck_ft_MC_Siqnal_-_Man_With_The_Gloves_(Extended_Mix)-(OBVN051)-WEB-2022
2022-03-17 05:14:14Hardstyle56Hero_Tik_Tok_and_Cyberdriver_-_Blazing_Samurai-(AKT001208)-WEB-2022
2022-03-17 05:13:54Hardstyle512Floorfillerz_-_True_Lovers-(FLZ004)-WEB-2022
2022-03-17 05:13:33Hardstyle56Vizba_-_I_Dont_Need_(Edit)-WEB-2022
2022-03-17 05:11:04Hardstyle511MasterOfTime_-_M.a.y.-(KKR110)-WEB-2022
2022-03-16 17:03:34Hardstyle58Unbehold_-_Straight_To_Ur_Face-(UPR145)-SINGLE-WEB-2022-SRG
2022-03-16 17:03:28Hardstyle57TCM_And_Woodz._-_Keep_Dancing-(DWX1149)-SINGLE-WEB-2022-SRG
2022-03-16 17:03:22Hardstyle58Realyzed_-_The_Other_Side-(AWK010E)-SINGLE-WEB-2022-SRG